[[{"header":{"parameterUnit":"m.s-1","parameterCategory":2,"la1":30.2991,"la2":30.254,"lo1":-89.0895,"lo2":-89.0444,"dy":0.0017,"dx":0.0017,"nx":28,"ny":28,"refTime":"2023-07-21T21:00:00:Z","depth":"0","parameterNumber":2,"parameterNumberName":"U-component_of_CURRENTS"},"data":[0,0,0,0,0,0,0,0,0,0,0,0,0,0,0,0,0,0,0,0,0,0,0,0,0,0,0,0,0,0,0,0,0,0,0,0,0,0,0,0,0,0,0,0,0,0,0,0,0,0,0,0,0,0,0,0,0,0,0.3874,0.3874,0,0.3752,0.3749,0.3747,0.368,0.3681,0.3682,0.3683,0.3809,0.3812,0.3814,0,0,0,0,0,0,0,0,0,0,0,0,0,0.3683,0.3688,0.3874,0.3874,0.3874,0.3752,0.3749,0.3746,0.3679,0.3681,0.3682,0.3683,0.3808,0.3811,0.3814,0,0,0,0,0,0,0,0,0,0,0,0,0,0.3673,0.369,0.3874,0.3835,0.3831,0.3753,0.3749,0.3745,0.3679,0.3681,0.3682,0.3684,0.3807,0.3811,0.3815,0.3806,0,0,0.3826,0.3827,0,0,0,0,0,0,0,0,0.3674,0.3678,0.3841,0.3838,0.3834,0.3744,0.3728,0.3783,0.3679,0.3723,0.3683,0.3684,0.3818,0.3821,0.3772,0.3812,0.3818,0.3826,0.3828,0.383,0.3831,0,0,0,0,0,0,0,0.3675,0.3681,0.3812,0.3841,0.3837,0.3699,0.3701,0.3734,0.3758,0.3719,0.3718,0.3724,0.3816,0.3768,0.3776,0.3819,0.3826,0.3829,0.3831,0.3833,0.3883,0.3883,0,0,0,0,0,0,0.3735,0.3685,0.3817,0.381,0.377,0.3704,0.3705,0.376,0.3752,0.3754,0.3723,0.3722,0.3761,0.3771,0.378,0.3813,0.383,0.3833,0.3835,0.3884,0.3883,0.3882,0,0,0,0,0,0,0.3732,0.375,0.3822,0.375,0.3752,0.371,0.3769,0.3758,0.3705,0.3755,0.3759,0.3685,0.3763,0.3775,0.3772,0.3817,0.3835,0.3838,0.3885,0.3884,0.3883,0.3854,0,0,0,0,0,0,0.3728,0.3751,0.3788,0.3758,0.3759,0.379,0.3769,0.3755,0.3714,0.371,0.3724,0.3736,0.3765,0.3766,0.3775,0.3823,0.3841,0.3886,0.3885,0.3883,0.3856,0.3852,0.3849,0,0,0,0,0,0.3722,0.3778,0.3792,0.3807,0.3823,0.3791,0.3776,0.3738,0.3711,0.3692,0.3669,0.3736,0.3765,0.3766,0.3778,0.3828,0.3887,0.3885,0.3883,0.3858,0.3853,0.3849,0,0,0,0,0,0,0.375,0.3777,0.3791,0.3866,0.384,0.3785,0.3786,0.3728,0.3681,0.3696,0.37,0.371,0.3739,0.3764,0.3764,0.3834,0.3849,0.3849,0.3825,0.3821,0.3817,0.3935,0.3844,0,0,0,0,0,0.3773,0.3794,0.381,0.3858,0.3878,0.382,0.3795,0.3766,0.3733,0.371,0.3685,0.3699,0.3737,0.3758,0.3785,0.3805,0.3916,0.385,0.3846,0.3843,0.3943,0.4093,0.4115,0.3876,0.3876,0.3876,0,0,0.3793,0.3812,0.3826,0.3857,0.3853,0.3873,0.3807,0.3797,0.3779,0.3743,0.3696,0.3686,0.3734,0.3757,0.3776,0.3787,0.3952,0.384,0.3838,0.3943,0.4094,0.4118,0.414,0.3875,0.3875,0.3875,0,0,0.3841,0.3886,0.3925,0.3921,0.3928,0.3896,0.3895,0.383,0.3787,0.3725,0.372,0.3732,0.3709,0.3777,0.3813,0.381,0.3924,0.3793,0.3883,0.4022,0.4046,0.4068,0.4182,0.4215,0.3794,0.3794,0.3794,0,0.3881,0.3922,0.3921,0.397,0.3967,0.3919,0.3947,0.3909,0.3813,0.3801,0.3727,0.3727,0.3755,0.3863,0.3858,0.3822,0.3897,0.3891,0.4026,0.405,0.4075,0.4187,0.4224,0.3793,0.3793,0.3793,0.3793,0,0.393,0.3983,0.4015,0.4058,0.406,0.4059,0.4052,0.4012,0.3924,0.3876,0.3879,0.3851,0.3882,0.3865,0.387,0.404,0.4033,0.4,0.4052,0.4098,0.421,0.425,0.379,0.3791,0.3792,0.3792,0,0,0.4005,0.4033,0.4054,0.4058,0.4087,0.4078,0.4119,0.4112,0.4126,0.4026,0.4042,0.4068,0.4039,0.4084,0.4066,0.4181,0.4372,0.4167,0.4174,0.431,0.4672,0.4503,0.4529,0.4347,0.4354,0.4361,0.4663,0,0.4042,0.4082,0.4102,0.4138,0.416,0.4163,0.4187,0.4193,0.4152,0.4152,0.4172,0.4182,0.4126,0.4126,0.4241,0.4321,0.4485,0.4295,0.4588,0.4599,0.4468,0.4574,0.4341,0.4578,0.4703,0.4709,0.4714,0,0.4092,0.4094,0.412,0.4135,0.4159,0.4175,0.4204,0.4222,0.4297,0.428,0.4335,0.4321,0.4464,0.4397,0.4655,0.4519,0.4661,0.4727,0.4738,0.4653,0.4506,0.4562,0.4647,0.4483,0.4776,0.4771,0.4767,0,0.4052,0.4112,0.4089,0.4097,0.4134,0.4154,0.4175,0.4251,0.4267,0.439,0.4411,0.4536,0.4575,0.4763,0.4831,0.4788,0.5105,0.5055,0.5068,0.5055,0.4966,0.4931,0.4973,0.5382,0.5381,0.538,0.538,0,0.4046,0.4054,0.4059,0.4046,0.4042,0.4118,0.4138,0.4206,0.4315,0.4351,0.4473,0.452,0.4676,0.4799,0.4929,0.507,0.5192,0.5171,0.5156,0.4931,0.4892,0.483,0.4797,0.5392,0.5389,0.5387,0.5385,0,0.4018,0.4022,0.4006,0.4019,0.4015,0.4027,0.4078,0.4104,0.4249,0.4319,0.4366,0.4548,0.4713,0.4838,0.5122,0.5153,0.5186,0.5385,0.5078,0.5021,0.4839,0.4812,0.4825,0.4694,0.5497,0.5495,0.5493,0,0.3988,0.3964,0.3944,0.3925,0.3923,0.3933,0.393,0.4048,0.4084,0.4295,0.4324,0.4531,0.4607,0.4913,0.5052,0.5272,0.5151,0.5183,0.5094,0.4864,0.4828,0.4641,0.4518,0.4962,0.4956,0.4951,0.4947,0,0.3916,0.3908,0.3889,0.3828,0.3807,0.3785,0.3799,0.3815,0.3962,0.4031,0.4156,0.4259,0.4561,0.4622,0.4876,0.5011,0.4872,0.5091,0.4971,0.4548,0.4246,0.4092,0.4704,0.4905,0.4909,0.4912,0.4915,0.4916,0.3835,0.3821,0.3769,0.3721,0.3688,0.3635,0.3573,0.3612,0.3637,0.3706,0.3903,0.3968,0.4185,0.4517,0.4559,0.4551,0.4674,0.4506,0.4543,0.441,0.4127,0.4616,0.4691,0.4693,0.4696,0.4698,0.47,0,0.3691,0.3687,0.3645,0.3569,0.3471,0.3497,0.3462,0.3386,0.3333,0.3438,0.3498,0.3623,0.3713,0.3891,0.4072,0.4003,0.3855,0.3946,0.3669,0.3618,0.4178,0.3985,0.376,0.376,0.376,0.3761,0.3761,0.3761,0.3628,0.3544,0.3542,0.3353,0.329,0.3115,0.3062,0.2993,0.3012,0.2969,0.2989,0.3119,0.3474,0.3694,0.3649,0.358,0.3322,0.3199,0.3247,0.3654,0.3708,0.3758,0.3564,0.3255,0.3254,0.2468,0.2463,0.2459]},{"header":{"parameterUnit":"m.s-1","parameterCategory":2,"la1":30.2991,"la2":30.254,"lo1":-89.0895,"lo2":-89.0444,"dy":0.0017,"dx":0.0017,"nx":28,"ny":28,"refTime":"2023-07-21T21:00:00:Z","depth":"0","parameterNumber":3,"parameterNumberName":"V-component_of_CURRENTS"},"data":[0,0,0,0,0,0,0,0,0,0,0,0,0,0,0,0,0,0,0,0,0,0,0,0,0,0,0,0,0,0,0,0,0,0,0,0,0,0,0,0,0,0,0,0,0,0,0,0,0,0,0,0,0,0,0,0,0,0,0.1026,0.1026,0,0.1013,0.1013,0.1012,0.0969,0.0969,0.0968,0.0968,0.0868,0.0866,0.0864,0,0,0,0,0,0,0,0,0,0,0,0,0,0.0959,0.0961,0.1026,0.1026,0.1026,0.1013,0.1013,0.1012,0.0969,0.0969,0.0968,0.0967,0.0869,0.0866,0.0864,0,0,0,0,0,0,0,0,0,0,0,0,0,0.0968,0.0961,0.1026,0.1006,0.1005,0.1013,0.1013,0.1012,0.097,0.0969,0.0968,0.0967,0.0869,0.0866,0.0863,0.0862,0,0,0.0854,0.0852,0,0,0,0,0,0,0,0,0.0968,0.097,0.1009,0.1008,0.1006,0.0995,0.0953,0.0959,0.097,0.0979,0.0968,0.0967,0.0906,0.09,0.0895,0.0857,0.0853,0.0853,0.0851,0.085,0.0849,0,0,0,0,0,0,0,0.0967,0.097,0.1017,0.101,0.1008,0.098,0.098,0.0953,0.0943,0.0978,0.0976,0.0981,0.0904,0.0898,0.0892,0.0851,0.0853,0.0851,0.0849,0.0847,0.0782,0.0782,0,0,0,0,0,0,0.0981,0.097,0.1017,0.1017,0.0989,0.0983,0.0983,0.0996,0.0945,0.0938,0.0982,0.0979,0.0904,0.0896,0.0888,0.091,0.085,0.0847,0.0845,0.0781,0.0782,0.0782,0,0,0,0,0,0,0.098,0.0986,0.1018,0.0995,0.0998,0.0985,0.1001,0.0997,0.0985,0.095,0.094,0.0974,0.0903,0.0892,0.0864,0.0904,0.0846,0.0843,0.0781,0.0782,0.0782,0.0935,0,0,0,0,0,0,0.0978,0.0985,0.1007,0.0997,0.1,0.1031,0.1002,0.0997,0.0992,0.0988,0.094,0.093,0.0901,0.0869,0.0861,0.0899,0.084,0.0781,0.0781,0.0782,0.093,0.0941,0.095,0,0,0,0,0,0.0976,0.0986,0.1008,0.1014,0.1028,0.1033,0.1032,0.1016,0.0992,0.0998,0.0959,0.0931,0.0864,0.0867,0.0857,0.0895,0.0781,0.0781,0.0782,0.0925,0.0938,0.0949,0,0,0,0,0,0,0.0973,0.0984,0.1007,0.1025,0.1043,0.1027,0.1035,0.1017,0.0992,0.0982,0.0935,0.0923,0.0922,0.087,0.0874,0.087,0.0817,0.0816,0.093,0.0941,0.0951,0.0964,0.0838,0,0,0,0,0,0.0989,0.099,0.1018,0.1033,0.1053,0.1048,0.1049,0.1037,0.1014,0.1002,0.0967,0.0927,0.0917,0.0897,0.0875,0.0865,0.0822,0.0878,0.0888,0.0897,0.0897,0.088,0.089,0.0783,0.0783,0.0783,0,0,0.0988,0.0998,0.1,0.1032,0.1048,0.1072,0.1044,0.1049,0.1046,0.0994,0.0975,0.0967,0.0922,0.0929,0.0921,0.0889,0.0902,0.0898,0.0907,0.0901,0.0882,0.0893,0.0902,0.0783,0.0783,0.0783,0,0,0.0978,0.1014,0.1018,0.105,0.1081,0.108,0.1084,0.1081,0.1065,0.1053,0.103,0.1046,0.0988,0.0998,0.0987,0.1028,0.0965,0.1008,0.1065,0.105,0.106,0.1067,0.1025,0.1028,0.1003,0.1003,0.1004,0,0.0986,0.1007,0.1021,0.1056,0.1089,0.1087,0.112,0.1105,0.1081,0.1095,0.1055,0.1057,0.1029,0.1072,0.1087,0.1059,0.1015,0.1036,0.1068,0.1074,0.108,0.1034,0.1036,0.1011,0.101,0.1009,0.1008,0,0.098,0.1028,0.104,0.1086,0.1121,0.1144,0.116,0.1174,0.1155,0.1152,0.1184,0.1159,0.1162,0.1168,0.1136,0.1179,0.1124,0.1099,0.1051,0.1101,0.1048,0.1047,0.1021,0.1019,0.1017,0.1015,0,0,0.0932,0.1016,0.1027,0.1085,0.1146,0.1172,0.1203,0.1246,0.129,0.1259,0.1316,0.1306,0.1307,0.1292,0.1276,0.1266,0.1279,0.1195,0.119,0.1176,0.1216,0.1151,0.1142,0.1256,0.1256,0.1257,0.1165,0,0.0936,0.0995,0.1037,0.1121,0.1176,0.1236,0.1278,0.1321,0.1342,0.1394,0.1386,0.1424,0.1342,0.1378,0.135,0.1307,0.128,0.1304,0.1148,0.1143,0.1099,0.1141,0.1137,0.1052,0.1163,0.1163,0.1163,0,0.0933,0.0976,0.1046,0.1186,0.122,0.1262,0.1387,0.1429,0.1511,0.1538,0.1573,0.1562,0.1562,0.1491,0.139,0.14,0.131,0.1261,0.1255,0.1138,0.1075,0.1016,0.1044,0.0837,0.116,0.116,0.116,0,0.0896,0.1005,0.1055,0.11,0.1231,0.1288,0.1362,0.1472,0.1541,0.1643,0.1712,0.1683,0.1691,0.1571,0.1414,0.1409,0.1292,0.1274,0.1128,0.112,0.1057,0.1043,0.0888,0.1208,0.1208,0.1208,0.1208,0,0.0901,0.0963,0.1043,0.1081,0.1181,0.129,0.1411,0.1503,0.164,0.175,0.1773,0.184,0.171,0.162,0.1458,0.1263,0.1302,0.1141,0.1101,0.1106,0.1099,0.0864,0.0782,0.1205,0.1205,0.1206,0.1207,0,0.0891,0.0934,0.1018,0.113,0.1169,0.1254,0.1435,0.154,0.1672,0.1824,0.1864,0.1936,0.1848,0.1676,0.1507,0.133,0.1055,0.108,0.1077,0.1039,0.0726,0.0654,0.0485,0.0424,0.0928,0.0926,0.0924,0,0.0897,0.0919,0.1022,0.1079,0.1134,0.1259,0.1362,0.1529,0.1654,0.1874,0.1952,0.196,0.1975,0.1691,0.1422,0.1137,0.0982,0.0922,0.0926,0.0705,0.0596,0.0566,0.0527,0.0896,0.0894,0.0893,0.0892,0,0.0908,0.0926,0.0986,0.1078,0.1176,0.1313,0.147,0.1566,0.1784,0.192,0.2088,0.2133,0.1945,0.1696,0.1329,0.1131,0.0805,0.0883,0.067,0.057,0.0514,0.0437,0.0933,0.0879,0.088,0.0881,0.0882,0.0882,0.0904,0.095,0.1004,0.1111,0.1222,0.1383,0.1499,0.167,0.1865,0.2101,0.2133,0.2223,0.1914,0.1465,0.115,0.063,0.0716,0.0475,0.0409,0.0399,0.0335,0.0783,0.0673,0.0673,0.0673,0.0673,0.0673,0,0.0893,0.0961,0.1048,0.1184,0.1308,0.1377,0.1589,0.1725,0.1938,0.2117,0.2242,0.2157,0.1684,0.1245,0.0593,0.0213,0.0136,0.0008,-0.0037,-0.0049,0.0349,0.0339,0.0134,0.0134,0.0134,0.0135,0.0135,0.0135,0.0898,0.0973,0.1034,0.1232,0.1341,0.1525,0.1651,0.1841,0.1999,0.2229,0.2313,0.2383,0.2201,0.0828,-0.0023,-0.0218,-0.0464,-0.051,-0.0614,-0.0371,-0.0333,-0.0296,-0.0328,-0.0669,-0.067,-0.0956,-0.0959,-0.0962]}],[{"header":{"parameterUnit":"m.s-1","parameterCategory":2,"la1":30.2991,"la2":30.254,"lo1":-89.0895,"lo2":-89.0444,"dy":0.0017,"dx":0.0017,"nx":28,"ny":28,"refTime":"2023-07-21T21:00:00:Z","depth":"2","parameterNumber":2,"parameterNumberName":"U-component_of_CURRENTS"},"data":[0,0,0,0,0,0,0,0,0,0,0,0,0,0,0,0,0,0,0,0,0,0,0,0,0,0,0,0,0,0,0,0,0,0,0,0,0,0,0,0,0,0,0,0,0,0,0,0,0,0,0,0,0,0,0,0,0,0,0.2953,0.2954,0,0.3106,0.3108,0.3111,0.3312,0.3314,0.3316,0.3319,0.3279,0.3275,0.3272,0,0,0,0,0,0,0,0,0,0,0,0,0,0.2794,0.2797,0.2953,0.2954,0.2955,0.3105,0.3109,0.3112,0.3311,0.3314,0.3317,0.332,0.328,0.3276,0.3272,0,0,0,0,0,0,0,0,0,0,0,0,0,0.2906,0.2798,0.2953,0.3065,0.3076,0.3105,0.3109,0.3112,0.3311,0.3314,0.3318,0.3321,0.3281,0.3276,0.3271,0.3171,0,0,0.3256,0.3254,0,0,0,0,0,0,0,0,0.2899,0.2913,0.3048,0.3057,0.3069,0.3184,0.3038,0.3119,0.331,0.3232,0.3319,0.3323,0.3219,0.322,0.3259,0.3169,0.3167,0.3256,0.3253,0.3251,0.325,0,0,0,0,0,0,0,0.2891,0.2907,0.3024,0.3048,0.3061,0.3093,0.3115,0.3055,0.3208,0.3239,0.3252,0.3251,0.3226,0.3263,0.3258,0.3166,0.3256,0.3252,0.3249,0.3247,0.3314,0.3319,0,0,0,0,0,0,0.2851,0.29,0.3019,0.3027,0.298,0.3093,0.3117,0.3152,0.3214,0.3225,0.3248,0.326,0.327,0.3264,0.3257,0.3296,0.3251,0.3246,0.3244,0.331,0.3315,0.332,0,0,0,0,0,0,0.2847,0.2861,0.3013,0.2957,0.2977,0.3091,0.3129,0.3153,0.3192,0.3221,0.3232,0.3262,0.3272,0.3264,0.3236,0.329,0.3244,0.324,0.3304,0.3311,0.3318,0.3272,0,0,0,0,0,0,0.2843,0.286,0.288,0.2955,0.2978,0.3067,0.3125,0.3153,0.3181,0.3199,0.3233,0.3236,0.3274,0.3244,0.3232,0.3282,0.3236,0.3298,0.3307,0.3316,0.3268,0.3277,0.3284,0,0,0,0,0,0.2837,0.2856,0.2881,0.2895,0.3001,0.3066,0.3084,0.3181,0.3178,0.3222,0.3232,0.3235,0.3298,0.3238,0.3224,0.3275,0.3294,0.3305,0.3315,0.3264,0.3275,0.3284,0,0,0,0,0,0,0.289,0.2879,0.2909,0.2953,0.3014,0.3098,0.316,0.3151,0.3194,0.3221,0.3209,0.3212,0.3232,0.3256,0.3192,0.3345,0.3328,0.3336,0.3295,0.3305,0.3313,0.3408,0.3232,0,0,0,0,0,0.2878,0.2849,0.2903,0.2951,0.2994,0.3054,0.3085,0.3137,0.3172,0.32,0.3208,0.325,0.3264,0.3278,0.3311,0.3314,0.3319,0.3379,0.3387,0.3393,0.3475,0.3451,0.3461,0.3355,0.3355,0.3355,0,0,0.2866,0.2905,0.2864,0.2948,0.3032,0.3046,0.3092,0.3169,0.3196,0.3172,0.323,0.3237,0.3267,0.333,0.3348,0.335,0.3424,0.3406,0.3409,0.3491,0.3462,0.3471,0.3479,0.3362,0.3361,0.336,0,0,0.2832,0.2935,0.2865,0.2933,0.3029,0.3078,0.3074,0.3153,0.3246,0.324,0.3274,0.3331,0.3307,0.3416,0.3433,0.3502,0.3447,0.3505,0.3623,0.3593,0.36,0.3606,0.3583,0.3588,0.353,0.353,0.353,0,0.2825,0.2817,0.2874,0.2897,0.2965,0.3063,0.307,0.3157,0.3207,0.3292,0.3277,0.3341,0.3384,0.3456,0.3558,0.3521,0.3471,0.3545,0.3593,0.36,0.3607,0.3583,0.3588,0.3529,0.353,0.353,0.353,0,0.2779,0.2766,0.28,0.2822,0.2892,0.2971,0.308,0.3203,0.3269,0.3311,0.3416,0.3464,0.3534,0.356,0.3582,0.3685,0.3618,0.3563,0.3536,0.3612,0.3585,0.3591,0.3528,0.3528,0.3529,0.3529,0,0,0.273,0.2729,0.2743,0.2754,0.2898,0.2957,0.31,0.3253,0.3374,0.342,0.3519,0.3626,0.3666,0.3708,0.373,0.377,0.3795,0.3717,0.3715,0.3645,0.3696,0.34,0.3377,0.3674,0.3677,0.3678,0.3639,0,0.2689,0.2688,0.2703,0.2712,0.2737,0.2941,0.3036,0.32,0.3386,0.3523,0.3621,0.37,0.3701,0.376,0.3782,0.3818,0.3817,0.3813,0.3687,0.3687,0.3367,0.3378,0.3227,0.3156,0.3644,0.3645,0.3646,0,0.2629,0.2651,0.2681,0.2697,0.2742,0.2775,0.3118,0.3216,0.3474,0.361,0.3731,0.3779,0.392,0.3867,0.3905,0.3868,0.3824,0.3806,0.3799,0.3566,0.3402,0.3177,0.3148,0.3656,0.3655,0.3654,0.3654,0,0.2663,0.2604,0.2667,0.2713,0.2783,0.2903,0.2977,0.3264,0.3407,0.3715,0.38,0.3902,0.3969,0.3927,0.3928,0.3922,0.3875,0.3844,0.351,0.3488,0.3377,0.3339,0.3828,0.3828,0.3828,0.3828,0.3828,0,0.2682,0.2648,0.2684,0.2778,0.2811,0.2888,0.3061,0.3247,0.3455,0.3606,0.3809,0.3899,0.3984,0.3961,0.3921,0.3707,0.3845,0.3558,0.3458,0.3352,0.3313,0.3784,0.3779,0.3826,0.3827,0.3827,0.3827,0,0.263,0.2699,0.268,0.2791,0.2843,0.2871,0.3003,0.3138,0.3375,0.36,0.368,0.3896,0.3915,0.3875,0.3861,0.3679,0.3545,0.341,0.3278,0.316,0.3196,0.3192,0.3101,0.309,0.3081,0.3073,0.3067,0,0.2629,0.2653,0.2722,0.2761,0.2803,0.2871,0.2964,0.3128,0.3302,0.3584,0.3669,0.3759,0.3712,0.3489,0.3338,0.3107,0.3284,0.2818,0.2804,0.321,0.3123,0.3133,0.314,0.266,0.2651,0.2644,0.2637,0,0.2558,0.2576,0.2595,0.2742,0.2818,0.283,0.2982,0.3049,0.3318,0.3444,0.3531,0.3454,0.327,0.299,0.2717,0.257,0.2851,0.2643,0.3117,0.2812,0.2774,0.2694,0.2721,0.257,0.2577,0.2582,0.2586,0.2588,0.2448,0.2386,0.2526,0.2585,0.2731,0.2825,0.2836,0.2989,0.3106,0.3258,0.3253,0.306,0.29,0.2367,0.2194,0.2122,0.2243,0.2212,0.2247,0.2287,0.2186,0.2127,0.1788,0.179,0.1792,0.1794,0.1795,0,0.2312,0.2251,0.2375,0.2466,0.2632,0.2774,0.2898,0.2851,0.2916,0.2987,0.2894,0.2412,0.2133,0.2043,0.1789,0.1594,0.1684,0.1591,0.1818,0.1878,0.1934,0.1829,0.133,0.1329,0.1329,0.1328,0,0,0.2138,0.2098,0.2155,0.2346,0.2547,0.2666,0.2711,0.2613,0.2598,0.2416,0.232,0.2193,0.2033,0.1771,0.1609,0.1507,0.1722,0.1432,0.1798,0.2137,0.2195,0.2254,0.2149,0,0,0,0,0]},{"header":{"parameterUnit":"m.s-1","parameterCategory":2,"la1":30.2991,"la2":30.254,"lo1":-89.0895,"lo2":-89.0444,"dy":0.0017,"dx":0.0017,"nx":28,"ny":28,"refTime":"2023-07-21T21:00:00:Z","depth":"2","parameterNumber":3,"parameterNumberName":"V-component_of_CURRENTS"},"data":[0,0,0,0,0,0,0,0,0,0,0,0,0,0,0,0,0,0,0,0,0,0,0,0,0,0,0,0,0,0,0,0,0,0,0,0,0,0,0,0,0,0,0,0,0,0,0,0,0,0,0,0,0,0,0,0,0,0,0.054,0.0541,0,0.0662,0.0664,0.0666,0.0768,0.0768,0.0768,0.0769,0.059,0.0585,0.058,0,0,0,0,0,0,0,0,0,0,0,0,0,0.0542,0.0541,0.054,0.0541,0.0541,0.0662,0.0664,0.0667,0.0768,0.0768,0.0769,0.0769,0.0592,0.0586,0.058,0,0,0,0,0,0,0,0,0,0,0,0,0,0.0599,0.0541,0.054,0.0599,0.0605,0.0661,0.0664,0.0668,0.0768,0.0768,0.0769,0.0769,0.0594,0.0586,0.0579,0.0529,0,0,0.0557,0.0554,0,0,0,0,0,0,0,0,0.0596,0.06,0.059,0.0595,0.0601,0.0691,0.0599,0.0603,0.0768,0.0717,0.0769,0.0769,0.0589,0.0582,0.0624,0.0521,0.0513,0.0556,0.0552,0.0548,0.0546,0,0,0,0,0,0,0,0.0591,0.0596,0.0599,0.059,0.0597,0.0668,0.0677,0.0603,0.0652,0.0721,0.0727,0.0724,0.0591,0.0631,0.0619,0.0511,0.0556,0.055,0.0545,0.0542,0.0493,0.0495,0,0,0,0,0,0,0.0547,0.0592,0.0595,0.0602,0.0587,0.0667,0.0677,0.067,0.066,0.0658,0.0723,0.0728,0.0643,0.0627,0.0612,0.0633,0.0549,0.0542,0.0537,0.0489,0.0493,0.0497,0,0,0,0,0,0,0.0547,0.0546,0.059,0.0592,0.0601,0.0664,0.0658,0.0672,0.0709,0.0663,0.0658,0.0743,0.0643,0.0623,0.0581,0.0622,0.0538,0.0532,0.0486,0.0491,0.0495,0.0619,0,0,0,0,0,0,0.0547,0.0546,0.0557,0.0588,0.0599,0.0647,0.0657,0.0674,0.0702,0.0709,0.0676,0.0662,0.0641,0.0593,0.0574,0.0611,0.0526,0.0482,0.0488,0.0493,0.0611,0.0627,0.0641,0,0,0,0,0,0.0546,0.0538,0.0557,0.0559,0.0602,0.0647,0.0663,0.0715,0.0702,0.0744,0.072,0.0663,0.0617,0.0588,0.0565,0.0601,0.0479,0.0486,0.0493,0.0604,0.0624,0.0641,0,0,0,0,0,0,0.057,0.0548,0.0569,0.0565,0.0616,0.0661,0.07,0.0706,0.0728,0.0724,0.0669,0.0655,0.0649,0.0602,0.0571,0.0614,0.055,0.0553,0.0643,0.066,0.0675,0.0681,0.052,0,0,0,0,0,0.057,0.055,0.0575,0.0585,0.0606,0.065,0.0677,0.0706,0.0712,0.0727,0.0707,0.0683,0.0663,0.064,0.0625,0.0605,0.052,0.0629,0.0644,0.0656,0.0652,0.0542,0.0544,0.0519,0.0519,0.0519,0,0,0.0571,0.0569,0.0554,0.0588,0.0634,0.0645,0.0672,0.0715,0.0731,0.0688,0.0715,0.0719,0.0671,0.0698,0.069,0.0655,0.063,0.0665,0.0676,0.0664,0.0549,0.055,0.0551,0.0524,0.0523,0.0522,0,0,0.0544,0.058,0.0544,0.0588,0.0638,0.0666,0.0665,0.072,0.077,0.0781,0.0779,0.0816,0.0759,0.0791,0.0773,0.0846,0.0713,0.0841,0.0909,0.0803,0.0802,0.08,0.0727,0.0717,0.0847,0.0848,0.0848,0,0.0546,0.0534,0.0557,0.0559,0.0605,0.0654,0.0669,0.0709,0.0751,0.0807,0.0798,0.0831,0.0813,0.0836,0.0907,0.0879,0.0786,0.0838,0.0816,0.0813,0.0808,0.0733,0.0721,0.0854,0.0854,0.0853,0.0852,0,0.0512,0.0515,0.052,0.0524,0.0571,0.0619,0.0662,0.0745,0.079,0.0829,0.0907,0.0921,0.0946,0.0972,0.0954,0.0961,0.0896,0.0843,0.0757,0.0817,0.0736,0.0721,0.0864,0.0862,0.086,0.0858,0,0,0.0459,0.0483,0.0487,0.0526,0.0583,0.0627,0.0683,0.0784,0.0868,0.0905,0.0993,0.1029,0.1067,0.1055,0.1063,0.1009,0.0951,0.0925,0.0916,0.0832,0.0708,0.0674,0.0653,0.0855,0.0853,0.0851,0.0672,0,0.0445,0.0455,0.0467,0.0509,0.0541,0.0649,0.0703,0.0798,0.0913,0.1016,0.1045,0.1119,0.1074,0.1143,0.1062,0.1003,0.091,0.1004,0.068,0.0672,0.0614,0.0634,0.0614,0.0451,0.0656,0.0654,0.0652,0,0.0407,0.0435,0.0474,0.0568,0.0597,0.0627,0.0844,0.0906,0.1046,0.1142,0.1204,0.1224,0.1227,0.1162,0.0973,0.1018,0.0861,0.0777,0.0766,0.0672,0.0608,0.042,0.0414,0.0625,0.0627,0.0629,0.0631,0,0.0416,0.0445,0.0504,0.054,0.063,0.0717,0.0793,0.0961,0.1079,0.1248,0.1347,0.1303,0.1334,0.1106,0.0949,0.0944,0.0691,0.0656,0.0457,0.0454,0.0345,0.0336,0.0444,0.0444,0.0444,0.0445,0.0445,0,0.043,0.0469,0.0522,0.0574,0.0678,0.0739,0.0905,0.1035,0.1195,0.1347,0.1392,0.1478,0.1311,0.1172,0.0945,0.066,0.0654,0.0463,0.0395,0.0397,0.0395,0.0468,0.0473,0.0438,0.044,0.0441,0.0442,0,0.0434,0.0469,0.0533,0.0639,0.0683,0.077,0.0949,0.1088,0.1246,0.1453,0.1509,0.1585,0.1443,0.1214,0.092,0.0705,0.0428,0.0301,0.0345,0.0286,0.0263,0.0277,0.0085,0.0082,0.008,0.0078,0.0076,0,0.0451,0.0477,0.058,0.0639,0.0697,0.0825,0.0935,0.1109,0.1282,0.1519,0.1616,0.1588,0.1526,0.1081,0.0764,0.0344,0.0331,0.0084,0.0086,0.0268,0.0221,0.0239,0.0257,-0.0,-0.0003,-0.0004,-0.0006,0,0.0477,0.0504,0.057,0.0691,0.0801,0.0929,0.1113,0.1234,0.1479,0.1638,0.1774,0.1718,0.1371,0.0981,0.0504,0.0244,0.0165,0.0035,0.0161,0.0114,0.0177,0.0135,0.0156,-0.0022,-0.002,-0.0019,-0.0018,-0.0018,0.0501,0.054,0.0632,0.0745,0.0885,0.1067,0.1198,0.1393,0.162,0.1868,0.1785,0.1683,0.1269,0.0625,0.0263,-0.0,0.0012,-0.0125,-0.0116,-0.0106,-0.0063,-0.0007,-0.0231,-0.023,-0.023,-0.023,-0.0229,0,0.052,0.0571,0.0688,0.0857,0.1038,0.111,0.1352,0.1485,0.174,0.1847,0.1864,0.1379,0.0933,0.0544,0.0103,-0.0213,-0.0194,-0.0274,-0.0207,-0.0192,-0.0179,-0.0135,-0.0325,-0.0325,-0.0326,-0.0326,0,0,0.0515,0.0614,0.0676,0.0961,0.1119,0.1365,0.1508,0.1668,0.1768,0.182,0.1749,0.1481,0.0951,0.059,0.0172,-0.0045,-0.0018,-0.0074,0.0019,0.016,0.0179,-0.0098,-0.0016,0,0,0,0,0]}],[{"header":{"parameterUnit":"m.s-1","parameterCategory":2,"la1":30.2991,"la2":30.254,"lo1":-89.0895,"lo2":-89.0444,"dy":0.0017,"dx":0.0017,"nx":28,"ny":28,"refTime":"2023-07-21T21:00:00:Z","depth":"4","parameterNumber":2,"parameterNumberName":"U-component_of_CURRENTS"},"data":[0,0,0,0,0,0,0,0,0,0,0,0,0,0,0,0,0,0,0,0,0,0,0,0,0,0,0,0,0,0,0,0,0,0,0,0,0,0,0,0,0,0,0,0,0,0,0,0,0,0,0,0,0,0,0,0,0,0,-0.0555,-0.0556,0,-0.0588,-0.0588,-0.0588,-0.0643,-0.0645,-0.0647,-0.0648,-0.0695,-0.0695,-0.0695,0,0,0,0,0,0,0,0,0,0,0,0,0,-0.051,-0.051,-0.0555,-0.0556,-0.0557,-0.0588,-0.0588,-0.0588,-0.0643,-0.0645,-0.0647,-0.0649,-0.0695,-0.0695,-0.0695,0,0,0,0,0,0,0,0,0,0,0,0,0,-0.0528,-0.051,-0.0555,-0.0594,-0.0598,-0.0588,-0.0588,-0.0588,-0.0643,-0.0645,-0.0648,-0.065,-0.0696,-0.0695,-0.0695,-0.0642,0,0,-0.0693,-0.0693,0,0,0,0,0,0,0,0,-0.0527,-0.0529,-0.0587,-0.0591,-0.0596,-0.062,-0.059,-0.0609,-0.0642,-0.0618,-0.0648,-0.0651,-0.0674,-0.0676,-0.0666,-0.0644,-0.0646,-0.0693,-0.0693,-0.0693,-0.0693,0,0,0,0,0,0,0,-0.0526,-0.0528,-0.0561,-0.0588,-0.0594,-0.0599,-0.0604,-0.0593,-0.0627,-0.0621,-0.0627,-0.064,-0.0676,-0.0666,-0.0668,-0.0647,-0.0693,-0.0693,-0.0693,-0.0692,-0.0741,-0.0742,0,0,0,0,0,0,-0.0534,-0.0526,-0.056,-0.0563,-0.0575,-0.0599,-0.0604,-0.0604,-0.0627,-0.0635,-0.0638,-0.0643,-0.0666,-0.0668,-0.067,-0.0597,-0.0693,-0.0692,-0.0692,-0.0739,-0.0741,-0.0743,0,0,0,0,0,0,-0.0533,-0.0536,-0.0559,-0.0552,-0.0556,-0.0598,-0.0597,-0.0604,-0.0651,-0.0641,-0.0648,-0.0687,-0.0668,-0.0671,-0.0694,-0.0601,-0.0692,-0.0692,-0.0737,-0.074,-0.0742,-0.046,0,0,0,0,0,0,-0.0531,-0.0535,-0.0542,-0.0552,-0.0557,-0.0585,-0.0596,-0.0603,-0.0655,-0.0663,-0.0683,-0.0687,-0.067,-0.0695,-0.0693,-0.0602,-0.0691,-0.0735,-0.0738,-0.0741,-0.0467,-0.0452,-0.0439,0,0,0,0,0,-0.0529,-0.0524,-0.0541,-0.0547,-0.0564,-0.0587,-0.059,-0.0623,-0.0656,-0.0675,-0.0688,-0.069,-0.0714,-0.0694,-0.0693,-0.0598,-0.0734,-0.0738,-0.0741,-0.0473,-0.0455,-0.044,0,0,0,0,0,0,-0.0508,-0.053,-0.055,-0.0553,-0.0587,-0.06,-0.0609,-0.0651,-0.0674,-0.0678,-0.069,-0.0693,-0.0657,-0.0725,-0.0704,-0.0645,-0.0732,-0.0735,-0.0529,-0.0513,-0.0499,-0.0643,-0.0691,0,0,0,0,0,-0.0506,-0.0515,-0.0543,-0.0555,-0.0562,-0.0598,-0.0617,-0.0641,-0.0662,-0.0678,-0.0695,-0.0712,-0.066,-0.0673,-0.0656,-0.0637,-0.0729,-0.0599,-0.0585,-0.0572,-0.0703,-0.0764,-0.0765,-0.0754,-0.0754,-0.0754,0,0,-0.0523,-0.052,-0.054,-0.0553,-0.0567,-0.0576,-0.0614,-0.064,-0.067,-0.0674,-0.071,-0.0647,-0.0649,-0.058,-0.0578,-0.0632,-0.0592,-0.0576,-0.0562,-0.0706,-0.0768,-0.0768,-0.0769,-0.0757,-0.0756,-0.0756,0,0,-0.052,-0.0533,-0.0532,-0.054,-0.056,-0.058,-0.0606,-0.0636,-0.0673,-0.0656,-0.0652,-0.062,-0.0557,-0.0561,-0.0538,-0.0492,-0.0495,-0.0428,-0.0474,-0.0522,-0.0523,-0.0526,-0.048,-0.0481,-0.0442,-0.0441,-0.0441,0,-0.0525,-0.0521,-0.0542,-0.0518,-0.0529,-0.0591,-0.0595,-0.0631,-0.0677,-0.0694,-0.0651,-0.0567,-0.0564,-0.0512,-0.0478,-0.0453,-0.0448,-0.0483,-0.0496,-0.0502,-0.051,-0.0464,-0.0469,-0.0428,-0.043,-0.0431,-0.0432,0,-0.0517,-0.0508,-0.05,-0.0497,-0.0518,-0.0525,-0.0573,-0.0604,-0.0608,-0.0627,-0.0573,-0.0527,-0.0493,-0.0431,-0.042,-0.0442,-0.0395,-0.0425,-0.051,-0.0492,-0.0445,-0.0455,-0.0409,-0.0414,-0.0418,-0.0421,0,0,-0.0525,-0.05,-0.0499,-0.0483,-0.0499,-0.0512,-0.0548,-0.0595,-0.0613,-0.0589,-0.0577,-0.049,-0.046,-0.0459,-0.0407,-0.0489,-0.0443,-0.0479,-0.0487,-0.0387,-0.045,-0.0322,-0.032,-0.0412,-0.0417,-0.042,-0.0332,0,-0.051,-0.0472,-0.0468,-0.0459,-0.0449,-0.0477,-0.0503,-0.0551,-0.0551,-0.0555,-0.0538,-0.0481,-0.0465,-0.0369,-0.0436,-0.043,-0.0487,-0.0463,-0.054,-0.0544,-0.0393,-0.0338,-0.0434,-0.034,-0.0343,-0.0345,-0.0346,0,-0.0502,-0.0471,-0.046,-0.0423,-0.042,-0.0434,-0.0461,-0.0483,-0.0523,-0.0501,-0.0463,-0.0426,-0.0453,-0.0463,-0.0509,-0.0453,-0.0494,-0.0531,-0.0526,-0.0572,-0.0443,-0.0418,-0.0366,-0.0365,-0.0363,-0.0362,-0.0361,0,-0.0507,-0.0461,-0.0458,-0.0446,-0.0427,-0.043,-0.0438,-0.0477,-0.0487,-0.0494,-0.0445,-0.0437,-0.0396,-0.0462,-0.0475,-0.0469,-0.0553,-0.0534,-0.0478,-0.0462,-0.0724,-0.0725,-0.0704,-0.0705,-0.0705,-0.0705,-0.0705,0,-0.0486,-0.0473,-0.0462,-0.0441,-0.0436,-0.0427,-0.0418,-0.043,-0.0427,-0.0407,-0.0421,-0.0361,-0.0417,-0.0415,-0.046,-0.0445,-0.0511,-0.0531,-0.047,-0.0583,-0.0571,-0.0719,-0.0721,-0.0702,-0.0702,-0.0703,-0.0704,0,-0.0498,-0.0494,-0.0458,-0.043,-0.0434,-0.0434,-0.0405,-0.0378,-0.0396,-0.0356,-0.0344,-0.0317,-0.0282,-0.0326,-0.0408,-0.0396,-0.0431,-0.0455,-0.0505,-0.0441,-0.0298,-0.0288,-0.0336,-0.0331,-0.0328,-0.0325,-0.0322,0,-0.0496,-0.0494,-0.0451,-0.0445,-0.0437,-0.0427,-0.0402,-0.0384,-0.0343,-0.0297,-0.0257,-0.0234,-0.0209,-0.0139,-0.0253,-0.0284,-0.0352,-0.0321,-0.0429,-0.0344,-0.028,-0.0276,-0.0271,-0.0316,-0.0315,-0.0314,-0.0313,0,-0.048,-0.048,-0.044,-0.0428,-0.041,-0.0354,-0.0313,-0.0277,-0.022,-0.0248,-0.0088,-0.0051,-0.0033,-0.0034,-0.0086,-0.0142,-0.0287,-0.0284,-0.0294,-0.0395,-0.032,-0.0259,-0.0259,-0.03,-0.0302,-0.0303,-0.0304,0,-0.0479,-0.0442,-0.0401,-0.0387,-0.036,-0.0271,-0.0249,-0.0134,-0.0076,-0.0019,0.0046,0.0055,0.0047,0.0036,0.0003,-0.0026,-0.0065,-0.0065,-0.0087,-0.0103,-0.0091,0.0034,0.0184,0,0,0,0,0,-0.0465,-0.0402,-0.0366,-0.0303,-0.0266,-0.0244,-0.0175,-0.0143,-0.0099,0.0061,0.0069,0.0118,0.0137,0.0124,0.0121,-0.0024,-0.0147,-0.0032,-0.0175,-0.0229,-0.0244,-0.0265,0,0,0,0,0,0,-0.0447,-0.0402,-0.0336,-0.0232,-0.019,-0.0112,-0.0061,-0.0029,0.0078,0.0107,0.0129,0.014,0.013,0.0142,0.0128,0.0107,0.0029,-0.0052,-0.005,-0.0221,-0.0234,-0.0246,-0.0273,0,0,0,0,0]},{"header":{"parameterUnit":"m.s-1","parameterCategory":2,"la1":30.2991,"la2":30.254,"lo1":-89.0895,"lo2":-89.0444,"dy":0.0017,"dx":0.0017,"nx":28,"ny":28,"refTime":"2023-07-21T21:00:00:Z","depth":"4","parameterNumber":3,"parameterNumberName":"V-component_of_CURRENTS"},"data":[0,0,0,0,0,0,0,0,0,0,0,0,0,0,0,0,0,0,0,0,0,0,0,0,0,0,0,0,0,0,0,0,0,0,0,0,0,0,0,0,0,0,0,0,0,0,0,0,0,0,0,0,0,0,0,0,0,0,-0.0118,-0.0119,0,-0.0106,-0.0106,-0.0105,-0.0069,-0.0069,-0.0069,-0.0068,-0.0186,-0.019,-0.0193,0,0,0,0,0,0,0,0,0,0,0,0,0,-0.0085,-0.0086,-0.0118,-0.0119,-0.0119,-0.0106,-0.0106,-0.0105,-0.0069,-0.0069,-0.0068,-0.0068,-0.0185,-0.0189,-0.0194,0,0,0,0,0,0,0,0,0,0,0,0,0,-0.0085,-0.0086,-0.0118,-0.0103,-0.0101,-0.0106,-0.0106,-0.0105,-0.007,-0.0069,-0.0068,-0.0068,-0.0184,-0.0189,-0.0194,-0.0239,0,0,-0.021,-0.0213,0,0,0,0,0,0,0,0,-0.0085,-0.0086,-0.0105,-0.0104,-0.0102,-0.0093,-0.0138,-0.0158,-0.007,-0.0077,-0.0068,-0.0067,-0.0171,-0.0177,-0.0168,-0.0244,-0.0249,-0.0211,-0.0214,-0.0216,-0.0218,0,0,0,0,0,0,0,-0.0085,-0.0086,-0.0109,-0.0105,-0.0104,-0.0088,-0.0087,-0.014,-0.0126,-0.0076,-0.0075,-0.0081,-0.017,-0.0162,-0.0171,-0.0251,-0.0211,-0.0215,-0.0219,-0.0221,-0.0426,-0.0428,0,0,0,0,0,0,-0.0098,-0.0086,-0.011,-0.0109,-0.0097,-0.009,-0.0088,-0.0093,-0.0123,-0.0127,-0.0081,-0.0079,-0.0154,-0.0165,-0.0175,-0.0273,-0.0216,-0.0221,-0.0224,-0.0424,-0.0426,-0.0429,0,0,0,0,0,0,-0.0097,-0.01,-0.011,-0.0101,-0.0102,-0.0091,-0.0096,-0.0093,-0.0093,-0.0126,-0.0131,-0.0086,-0.0154,-0.0168,-0.0247,-0.0276,-0.0224,-0.0228,-0.0421,-0.0425,-0.0428,-0.0444,0,0,0,0,0,0,-0.0096,-0.0099,-0.0102,-0.0102,-0.0103,-0.0153,-0.0097,-0.0093,-0.0099,-0.0096,-0.0132,-0.0141,-0.0154,-0.0239,-0.0252,-0.0283,-0.0232,-0.0418,-0.0423,-0.0427,-0.044,-0.0447,-0.0453,0,0,0,0,0,-0.0095,-0.0083,-0.0102,-0.0105,-0.0108,-0.0156,-0.0157,-0.0143,-0.01,-0.0132,-0.0144,-0.014,-0.0275,-0.0246,-0.0261,-0.0293,-0.0416,-0.0421,-0.0426,-0.0437,-0.0446,-0.0453,0,0,0,0,0,0,-0.0055,-0.0079,-0.0099,-0.0093,-0.0152,-0.0153,-0.0155,-0.0151,-0.0176,-0.017,-0.0177,-0.019,-0.0255,-0.0289,-0.0256,-0.0367,-0.0343,-0.0352,-0.0347,-0.0355,-0.0361,-0.0327,-0.0237,0,0,0,0,0,-0.0057,-0.0065,-0.0112,-0.0119,-0.0143,-0.0156,-0.0164,-0.0178,-0.02,-0.0206,-0.0252,-0.0281,-0.0287,-0.0333,-0.0364,-0.045,-0.0441,-0.0481,-0.0487,-0.0492,-0.0477,-0.0518,-0.0526,-0.0446,-0.0446,-0.0446,0,0,-0.0042,-0.006,-0.0062,-0.0115,-0.0138,-0.0156,-0.0158,-0.0197,-0.0209,-0.0223,-0.0274,-0.0305,-0.0309,-0.0377,-0.0413,-0.0417,-0.0508,-0.0499,-0.0502,-0.0484,-0.0524,-0.0531,-0.0538,-0.0449,-0.0449,-0.0448,0,0,-0.0004,-0.0043,-0.0033,-0.0078,-0.0141,-0.0171,-0.019,-0.025,-0.0277,-0.0347,-0.0327,-0.0385,-0.0453,-0.0461,-0.0455,-0.0528,-0.052,-0.0555,-0.0587,-0.0628,-0.0634,-0.0639,-0.0613,-0.0615,-0.0584,-0.0584,-0.0584,0,0.0019,0.0017,-0.0047,-0.0048,-0.0081,-0.0172,-0.0186,-0.0221,-0.0312,-0.0355,-0.0375,-0.0446,-0.0469,-0.0484,-0.0506,-0.0537,-0.0545,-0.0548,-0.0633,-0.0638,-0.0643,-0.0615,-0.0617,-0.0585,-0.0585,-0.0585,-0.0585,0,0.0062,0.0056,0.0052,0.0014,-0.0041,-0.0086,-0.0166,-0.0245,-0.0304,-0.0357,-0.0445,-0.0496,-0.0532,-0.0562,-0.0545,-0.06,-0.0585,-0.0611,-0.0601,-0.0651,-0.0619,-0.0621,-0.0587,-0.0587,-0.0587,-0.0586,0,0,0.0115,0.0092,0.0087,0.0062,-0.0024,-0.008,-0.0123,-0.0223,-0.0254,-0.0386,-0.0431,-0.048,-0.0545,-0.0543,-0.0572,-0.0633,-0.0663,-0.0651,-0.0652,-0.0601,-0.0717,-0.0673,-0.067,-0.0721,-0.0723,-0.0724,-0.067,0,0.0154,0.0167,0.0138,0.0103,0.0076,-0.0024,-0.0067,-0.0173,-0.0268,-0.0358,-0.044,-0.0495,-0.0521,-0.0556,-0.0614,-0.0654,-0.0676,-0.0672,-0.0696,-0.0695,-0.0632,-0.0675,-0.0728,-0.0672,-0.0673,-0.0673,-0.0673,0,0.019,0.0183,0.0177,0.0105,0.0082,0.004,-0.0095,-0.0146,-0.0268,-0.0337,-0.042,-0.0476,-0.0551,-0.0578,-0.0657,-0.0663,-0.0671,-0.0709,-0.0709,-0.066,-0.0656,-0.0623,-0.0677,-0.0677,-0.0676,-0.0676,-0.0676,0,0.0193,0.0191,0.0172,0.0154,0.0077,0.0026,-0.005,-0.0169,-0.0235,-0.0339,-0.0389,-0.0479,-0.0524,-0.0593,-0.0642,-0.0663,-0.0722,-0.0754,-0.0702,-0.0696,-0.074,-0.0735,-0.0777,-0.0777,-0.0777,-0.0778,-0.0778,0,0.0208,0.0188,0.0167,0.0144,0.0074,0.0011,-0.0087,-0.0158,-0.0252,-0.0327,-0.039,-0.044,-0.054,-0.0582,-0.0633,-0.0664,-0.07,-0.0691,-0.0693,-0.0746,-0.0743,-0.0739,-0.0735,-0.0775,-0.0776,-0.0776,-0.0777,0,0.0184,0.0194,0.0165,0.0105,0.0068,-0.0003,-0.0127,-0.0189,-0.0257,-0.0339,-0.0368,-0.0426,-0.0471,-0.0524,-0.0605,-0.0628,-0.0681,-0.0663,-0.0659,-0.0664,-0.0619,-0.0618,-0.0614,-0.0613,-0.0611,-0.061,-0.0609,0,0.0174,0.0169,0.0121,0.0086,0.0044,-0.0053,-0.0131,-0.0216,-0.0268,-0.0335,-0.037,-0.0397,-0.0431,-0.0468,-0.0551,-0.0594,-0.0601,-0.06,-0.066,-0.0607,-0.0609,-0.061,-0.061,-0.0607,-0.0606,-0.0606,-0.0606,0,0.0143,0.0136,0.0103,0.0041,-0.0034,-0.0111,-0.0213,-0.0228,-0.0304,-0.034,-0.0344,-0.0367,-0.0382,-0.0434,-0.0434,-0.0492,-0.0614,-0.0585,-0.059,-0.0646,-0.0597,-0.0601,-0.0603,-0.06,-0.0601,-0.0602,-0.0602,0,0.0102,0.0082,0.0051,-0.0006,-0.008,-0.0151,-0.0202,-0.0244,-0.0286,-0.0311,-0.0313,-0.0336,-0.0353,-0.0379,-0.0422,-0.0436,-0.046,-0.0484,-0.0494,-0.0501,-0.0503,-0.0426,-0.0372,0,0,0,0,0,0.0053,0.004,-0.0,-0.0059,-0.0119,-0.0163,-0.0245,-0.0275,-0.0298,-0.028,-0.0285,-0.0293,-0.0319,-0.035,-0.0348,-0.0431,-0.0491,-0.0437,-0.053,-0.0572,-0.0578,-0.06,0,0,0,0,0,0,0.0011,-0.0021,-0.0005,-0.0074,-0.0106,-0.0197,-0.0233,-0.0258,-0.0241,-0.0242,-0.0242,-0.0272,-0.0292,-0.0278,-0.0327,-0.0343,-0.0404,-0.0459,-0.0459,-0.0569,-0.0574,-0.0579,-0.0603,0,0,0,0,0]}]]